When you browse on this site, cookies collect data to enhance your experience and personalize the content and advertising you see.
Visit our Privacy Policy to learn more. By continuing to use the site, you agree to this use of cookies and data.

Tiempo cada hora Málaga

Hoy, 20 Septiembre, Domingo

Tiempo Temperatura Precipitaciones Viento Presión Humedad
00:00 +22°C° 0 mm 3 mps 763 mmHg 71%
01:00 +22°C° 0 mm 3 mps 762 mmHg 72%
02:00 +21°C° 0 mm 3 mps 762 mmHg 72%
03:00 +21°C° 0 mm 3 mps 761 mmHg 73%
04:00 +21°C° 0 mm 3 mps 762 mmHg 72%
05:00 +21°C° 0 mm 3 mps 762 mmHg 72%
06:00 +20°C° 0 mm 3 mps 762 mmHg 71%
07:00 +22°C° 0 mm 3 mps 762 mmHg 65%
08:00 +25°C° 0 mm 2 mps 762 mmHg 59%
09:00 +26°C° 0 mm 2 mps 762 mmHg 52%
10:00 +28°C° 0 mm 2 mps 762 mmHg 47%
11:00 +29°C° 0 mm 3 mps 762 mmHg 41%
12:00 +30°C° 0 mm 3 mps 762 mmHg 36%
13:00 +31°C° 0 mm 3 mps 761 mmHg 35%
14:00 +32°C° 0 mm 4 mps 761 mmHg 35%
15:00 +32°C° 0 mm 4 mps 760 mmHg 35%
16:00 +30°C° 0 mm 4 mps 760 mmHg 38%
17:00 +29°C° 0 mm 3 mps 760 mmHg 40%
18:00 +28°C° 0 mm 3 mps 760 mmHg 43%
19:00 +28°C° 0 mm 3 mps 761 mmHg 45%
20:00 +27°C° 0 mm 3 mps 761 mmHg 47%
21:00 +26°C° 0 mm 3 mps 761 mmHg 48%
22:00 +26°C° 0 mm 2 mps 761 mmHg 50%
23:00 +26°C° 0 mm 2 mps 761 mmHg 51%

Mañana, 21 Septiembre, Lunes

Tiempo Temperatura Precipitaciones Viento Presión Humedad
00:00 +25°C° 0 mm 2 mps 761 mmHg 52%
01:00 +25°C° 0 mm 2 mps 760 mmHg 54%
02:00 +24°C° 0 mm 2 mps 760 mmHg 57%
03:00 +24°C° 0 mm 2 mps 760 mmHg 59%
04:00 +24°C° 0 mm 2 mps 760 mmHg 60%
05:00 +24°C° 0 mm 2 mps 760 mmHg 61%
06:00 +23°C° 0 mm 2 mps 760 mmHg 63%
07:00 +25°C° 0 mm 2 mps 760 mmHg 58%
08:00 +26°C° 0 mm 1 mps 761 mmHg 54%
09:00 +27°C° 0 mm 1 mps 761 mmHg 49%
10:00 +29°C° 0 mm 1 mps 761 mmHg 44%
11:00 +30°C° 0 mm 2 mps 761 mmHg 39%
12:00 +31°C° 0 mm 2 mps 761 mmHg 35%
13:00 +31°C° 0 mm 2 mps 760 mmHg 34%
14:00 +32°C° 0 mm 2 mps 760 mmHg 34%
15:00 +32°C° 0 mm 2 mps 759 mmHg 34%
16:00 +31°C° 0 mm 2 mps 759 mmHg 37%
17:00 +30°C° 0 mm 2 mps 759 mmHg 40%
18:00 +29°C° 0 mm 1 mps 759 mmHg 43%
19:00 +28°C° 0 mm 1 mps 759 mmHg 44%
20:00 +28°C° 0 mm 1 mps 760 mmHg 46%
21:00 +27°C° 0 mm 1 mps 760 mmHg 47%
22:00 +27°C° 0 mm 1 mps 760 mmHg 48%
23:00 +26°C° 0 mm 1 mps 760 mmHg 49%

Pasado mañana, 22 Septiembre, Martes

Tiempo Temperatura Precipitaciones Viento Presión Humedad
00:00 +26°C° 0 mm 1 mps 759 mmHg 50%
01:00 +26°C° 0 mm 1 mps 759 mmHg 51%
02:00 +26°C° 0 mm 1 mps 759 mmHg 51%
03:00 +25°C° 0 mm 1 mps 759 mmHg 52%
04:00 +25°C° 0 mm 1 mps 759 mmHg 52%
05:00 +25°C° 0 mm 1 mps 759 mmHg 52%
06:00 +25°C° 0 mm 1 mps 759 mmHg 52%
07:00 +26°C° 0 mm 1 mps 759 mmHg 48%
08:00 +26°C° 0 mm 0 mps 759 mmHg 43%
09:00 +27°C° 0 mm 0 mps 759 mmHg 39%
10:00 +30°C° 0 mm 1 mps 759 mmHg 37%
11:00 +31°C° 0 mm 2 mps 759 mmHg 35%
12:00 +32°C° 0 mm 2 mps 759 mmHg 34%
13:00 +32°C° 0 mm 2 mps 758 mmHg 33%
14:00 +32°C° 0 mm 2 mps 758 mmHg 33%
15:00 +32°C° 0 mm 2 mps 758 mmHg 33%
16:00 +31°C° 0 mm 2 mps 758 mmHg 36%
17:00 +30°C° 0 mm 2 mps 757 mmHg 39%
18:00 +29°C° 0 mm 1 mps 757 mmHg 41%
19:00 +29°C° 0 mm 1 mps 758 mmHg 42%
20:00 +28°C° 0 mm 1 mps 758 mmHg 42%
21:00 +27°C° 0 mm 1 mps 759 mmHg 43%
22:00 +27°C° 0 mm 1 mps 759 mmHg 44%
23:00 +26°C° 0 mm 2 mps 759 mmHg 46%

23 Septiembre, Miércoles

Tiempo Temperatura Precipitaciones Viento Presión Humedad
00:00 +26°C° 0 mm 2 mps 759 mmHg 48%
01:00 +25°C° 0 mm 2 mps 758 mmHg 48%
02:00 +25°C° 0 mm 2 mps 758 mmHg 48%
03:00 +25°C° 0 mm 2 mps 758 mmHg 48%
04:00 +25°C° 0 mm 2 mps 758 mmHg 48%
05:00 +24°C° 0 mm 2 mps 758 mmHg 48%
06:00 +24°C° 0 mm 2 mps 758 mmHg 48%
07:00 +26°C° 0 mm 2 mps 758 mmHg 43%
08:00 +27°C° 0 mm 1 mps 758 mmHg 39%
09:00 +29°C° 0 mm 1 mps 758 mmHg 35%
10:00 +30°C° 0 mm 2 mps 758 mmHg 32%
11:00 +32°C° 0 mm 2 mps 758 mmHg 28%
12:00 +34°C° 0 mm 3 mps 758 mmHg 25%
13:00 +33°C° 0 mm 3 mps 758 mmHg 27%
14:00 +32°C° 0 mm 2 mps 757 mmHg 29%
15:00 +31°C° 0 mm 2 mps 757 mmHg 31%
16:00 +30°C° 0 mm 2 mps 757 mmHg 33%
17:00 +29°C° 0 mm 2 mps 757 mmHg 36%
18:00 +29°C° 0 mm 2 mps 757 mmHg 38%
19:00 +28°C° 0 mm 2 mps 758 mmHg 39%
20:00 +28°C° 0 mm 2 mps 759 mmHg 39%
21:00 +28°C° 0 mm 2 mps 759 mmHg 40%
22:00 +26°C° 0.5 mm 2 mps 759 mmHg 52%
23:00 +25°C° 0.5 mm 2 mps 759 mmHg 63%

24 Septiembre, Jueves

Tiempo Temperatura Precipitaciones Viento Presión Humedad
00:00 +23°C° 0.5 mm 2 mps 759 mmHg 74%
01:00 +23°C° 0.1 mm 2 mps 758 mmHg 74%
02:00 +23°C° 0.1 mm 1 mps 758 mmHg 74%
03:00 +23°C° 0.1 mm 1 mps 757 mmHg 74%
04:00 +23°C° 0 mm 1 mps 757 mmHg 73%
05:00 +23°C° 0 mm 1 mps 757 mmHg 72%
06:00 +23°C° 0 mm 1 mps 757 mmHg 70%
07:00 +24°C° 0 mm 1 mps 758 mmHg 64%
08:00 +26°C° 0 mm 1 mps 758 mmHg 58%
09:00 +27°C° 0 mm 1 mps 758 mmHg 52%
10:00 +28°C° 0 mm 1 mps 758 mmHg 49%
11:00 +29°C° 0 mm 2 mps 758 mmHg 46%
12:00 +30°C° 0 mm 2 mps 757 mmHg 43%
13:00 +30°C° 0 mm 2 mps 757 mmHg 43%
14:00 +30°C° 0 mm 2 mps 757 mmHg 43%
15:00 +30°C° 0 mm 2 mps 757 mmHg 43%
16:00 +29°C° 0 mm 2 mps 757 mmHg 45%
17:00 +28°C° 0 mm 1 mps 757 mmHg 48%
18:00 +28°C° 0 mm 1 mps 758 mmHg 50%
19:00 +27°C° 0 mm 1 mps 758 mmHg 51%
20:00 +27°C° 0 mm 1 mps 759 mmHg 52%
21:00 +27°C° 0 mm 1 mps 760 mmHg 53%
22:00 +26°C° 0 mm 1 mps 760 mmHg 55%
23:00 +25°C° 0 mm 1 mps 760 mmHg 57%

25 Septiembre, Viernes

Tiempo Temperatura Precipitaciones Viento Presión Humedad
00:00 +25°C° 0 mm 2 mps 760 mmHg 59%
01:00 +25°C° 0 mm 2 mps 760 mmHg 60%
02:00 +24°C° 0 mm 2 mps 760 mmHg 60%
03:00 +24°C° 0 mm 2 mps 760 mmHg 61%
04:00 +24°C° 0 mm 2 mps 760 mmHg 62%
05:00 +24°C° 0 mm 2 mps 760 mmHg 63%
06:00 +23°C° 0 mm 2 mps 760 mmHg 65%
07:00 +25°C° 0 mm 2 mps 761 mmHg 59%
08:00 +27°C° 0 mm 2 mps 761 mmHg 54%
09:00 +28°C° 0 mm 2 mps 761 mmHg 48%
10:00 +29°C° 0 mm 2 mps 761 mmHg 44%
11:00 +31°C° 0 mm 3 mps 761 mmHg 40%
12:00 +33°C° 0 mm 4 mps 761 mmHg 36%
13:00 +33°C° 0 mm 4 mps 761 mmHg 35%
14:00 +33°C° 0 mm 4 mps 760 mmHg 35%
15:00 +34°C° 0 mm 4 mps 760 mmHg 34%
16:00 +33°C° 0 mm 4 mps 760 mmHg 36%
17:00 +32°C° 0 mm 4 mps 760 mmHg 38%
18:00 +30°C° 0 mm 4 mps 760 mmHg 40%
19:00 +29°C° 0 mm 4 mps 760 mmHg 42%
20:00 +28°C° 0 mm 3 mps 761 mmHg 44%
21:00 +27°C° 0 mm 3 mps 761 mmHg 46%
22:00 +27°C° 0 mm 3 mps 761 mmHg 46%
23:00 +26°C° 0 mm 3 mps 761 mmHg 47%
Mostrar más